Presure
177 182 178 182 172 128 126 130 145 86 109 147 148 147 164 109 174 167 125 102 105 94 113 99 100 109 115 122 94 95 91 107 122 104 115 117 119 123 121 141 135 133 143
105 154 174 189 184 188 153 126 144 132 82 141 144 150 153 156 171 173 162 149 144 98 125 95 146 96 113 114 94 108 95 97 110 107 110 115 119 121 145 142 138 96 149
91 145 157 171 171 180 190 173 148 147 138 147 110 159 150 159 169 171 170 163 161 156 159 162 162 159 154 139 125 128 95 98 122 128 117 135 128 129 138 145 144 156 128
104 117 153 153 154 171 175 185 180 138 139 141 141 144 149 158 158 131 162 121 161 150 158 158 154 158 159 151 143 125 148 98 106 138 151 133 149 151 146 159 164 132 134
81 126 108 139 105 110 172 172 190 172 150 160 140 143 147 139 151 122 124 178 126 161 147 141 154 156 159 157 150 157 159 103 100 142 117 145 148 158 164 161 152 127 124
190 100 179 152 87 95 170 173 203 198 185 138 149 145 142 148 139 150 103 132 178 96 125 158 144 143 142 169 170 165 151 118 103 160 161 162 162 164 160 129 135 134 151
177 199 200 190 182 120 84 95 170 178 201 176 126 157 143 142 150 137 132 153 161 132 148 104 163 155 144 149 133 142 153 148 145 143 163 149 129 148 146 150 152 149 146
202 188 214 218 205 191 187 177 173 94 181 148 172 171 136 143 140 144 134 131 160 127 144 156 170 170 167 150 151 142 144 157 157 150 159 157 153 150 147 140 135 145 132
209 219 203 200 202 213 197 180 158 112 94 136 150 176 167 144 145 136 123 128 141 140 127 108 151 164 170 125 170 163 104 110 139 135 142 151 144 139 122 134 142 164 132
144 212 205 217 207 209 213 200 189 173 167 162 90 161 173 173 158 143 143 115 142 136 140 144 129 151 164 160 170 106 171 176 173 147 119 140 143 147 123 138 167 153 123
186 193 205 205 185 213 217 212 214 192 174 183 179 177 102 159 180 159 127 140 143 139 135 147 150 104 106 147 163 157 160 166 169 170 175 170 171 163 162 160 159 123 136
156 184 222 201 171 216 208 223 228 213 223 185 184 181 179 96 172 180 167 134 145 146 136 139 132 144 160 142 144 129 161 143 145 129 168 170 126 141 158 152 149 149 119
142 88 229 98 236 194 181 156 213 222 208 193 195 185 175 185 162 148 176 173 155 127 130 157 135 139 146 148 157 159 153 157 157 161 154 134 155 167 140 138 137 123 124
113 130 134 136 181 200 191 210 206 219 234 208 202 195 182 176 164 205 165 154 183 168 161 152 137 132 134 132 135 142 149 155 159 130 130 133 121 124 125 130 122 121 152
129 208 205 120 236 179 216 211 231 210 218 236 211 203 194 189 184 168 167 167 176 182 174 153 139 156 139 141 142 143 146 147 149 151 150 151 151 148 125 132 136 149 132
142 134 264 228 190 259 98 131 224 155 206 127 189 142 202 197 201 182 173 165 183 171 165 177 159 150 148 146 138 140 143 142 147 142 135 126 127 141 133 135 143 129 139
219 293 297 295 92 302 119 255 129 223 133 239 197 221 231 200 192 199 184 181 196 183 178 171 169 177 155 147 137 145 150 146 143 145 138 133 144 148 138 153 131 154 147
288 285 281 296 290 309 311 278 125 247 249 167 202 126 217 183 200 192 200 184 174 181 182 191 188 173 177 143 158 157 150 140 135 136 141 138 144 143 151 124 166 159 91
277 150 287 262 235 290 303 171 181 341 206 219 240 162 170 167 179 151 165 211 189 182 183 169 167 183 182 168 144 137 132 144 151 149 130 151 147 138 158 156 128 148 167
222 135 132 301 268 291 298 262 340 340 349 253 132 185 214 90 117 182 212 142 191 186 182 145 171 172 171 177 178 174 169 137 158 149 150 150 126 133 124 160 151 130 159
126 169 288 135 305 313 310 277 314 317 103 347 120 149 203 135 203 220 126 185 216 173 146 185 178 174 185 180 180 184 187 166 162 165 176 170 169 175 172 111 171 164 164
248 264 307 302 391 376 308 372 366 385 308 322 358 244 251 122 207 172 203 208 217 204 197 182 189 180 169 166 169 178 175 176 167 176 177 174 159 167 172 173 170 160 174
221 277 298 317 345 336 335 178 425 275 375 303 331 234 231 242 218 212 191 219 180 202 200 187 186 189 176 170 178 166 172 176 157 162 174 174 170 161 165 173 131 159 174
263 261 280 332 325 341 348 332 184 417 378 293 311 319 232 227 223 182 217 184 195 200 204 170 175 193 173 184 185 181 168 175 172 171 168 152 167 145 148 170 131 176 180
260 266 265 314 316 304 330 320 360 356 411 362 310 339 216 217 221 207 202 210 195 207 206 206 174 177 160 175 190 174 173 175 169 144 142 136 144 158 167 176 146 174 179
246 263 259 314 292 307 306 317 355 348 395 421 321 331 220 239 199 212 206 202 204 211 197 188 210 177 153 193 134 175 174 168 167 166 153 170 174 158 133 146 135 144 165
Wind_Speed
51 51 49 49 45 34 33 33 31 17 25 30 28 26 28 28 26 27 20 18 22 18 18 19 20 21 22 24 14 13 9 15 21 15 18 18 19 20 20 24 24 23 24
24 40 44 48 46 47 42 36 38 34 17 32 32 29 28 28 27 27 29 32 26 21 26 20 31 20 24 22 16 20 15 15 19 18 19 20 21 22 27 26 25 18 22
27 43 43 45 43 44 47 48 43 40 37 37 26 33 32 30 30 30 30 31 30 30 29 27 28 31 32 30 27 27 17 17 25 27 23 27 25 25 26 28 28 27 25
31 34 47 47 46 47 46 49 49 43 41 40 37 35 36 34 32 32 31 29 33 33 30 29 30 29 30 33 34 28 31 20 21 29 31 28 29 30 30 29 27 27 28
18 34 29 43 30 31 50 50 53 51 47 48 40 39 38 39 35 34 34 36 30 35 35 35 33 32 32 34 34 32 32 23 21 32 24 32 31 32 28 28 30 28 28
61 30 55 49 25 28 53 52 56 55 55 45 46 44 41 40 40 36 34 39 37 26 33 37 36 36 36 33 32 33 35 27 23 33 33 33 32 30 29 29 31 32 31
57 63 62 61 62 41 27 31 55 55 56 55 42 52 45 43 41 42 36 37 37 39 36 32 38 39 38 37 37 35 36 36 35 33 34 32 32 32 32 32 31 33 33
61 62 66 65 66 65 64 62 60 36 59 51 57 59 46 47 46 44 44 38 41 37 40 38 40 40 41 39 41 36 37 38 36 34 35 34 33 33 33 32 33 35 33
59 61 66 66 63 68 68 65 58 42 36 46 54 63 61 51 50 49 44 43 44 41 38 36 40 40 42 34 44 41 30 29 36 36 35 34 35 36 32 33 35 36 33
41 62 63 69 70 67 70 71 70 65 65 63 31 61 63 65 61 53 52 42 48 46 45 44 42 42 44 43 41 33 43 42 42 39 34 36 38 39 33 35 40 36 37
52 57 61 68 62 69 73 73 75 73 67 73 61 67 38 60 70 64 47 52 51 49 47 46 46 36 34 41 43 43 43 40 40 41 41 41 40 42 43 42 39 35 36
45 58 71 66 58 76 72 77 78 78 76 74 75 71 67 35 71 70 69 52 55 55 49 48 47 48 50 44 43 39 44 40 40 37 40 40 38 42 44 39 38 38 43
41 30 69 32 72 70 59 52 77 80 82 79 80 77 73 73 64 60 73 72 64 48 48 57 48 47 48 45 48 50 45 44 44 44 41 40 43 44 40 37 36 38 42
35 37 42 46 61 74 70 82 76 83 84 85 84 83 79 76 69 72 70 61 72 71 66 57 51 50 50 47 48 48 47 47 46 40 40 42 42 40 41 38 39 41 43
47 56 63 42 77 65 86 85 91 82 85 87 84 87 85 85 77 74 68 70 74 74 72 61 54 62 54 53 53 51 50 49 46 48 45 46 46 44 43 42 41 45 45
47 34 70 67 61 74 35 49 83 60 80 49 75 57 87 87 87 77 74 68 78 74 71 72 67 60 61 59 54 53 52 50 49 50 46 44 44 45 43 45 40 43 44
59 66 66 67 36 68 43 81 48 89 49 96 72 91 92 87 83 87 79 77 79 78 77 74 74 74 68 65 54 58 60 56 52 53 49 48 52 53 49 55 43 51 48
61 61 62 61 64 62 68 82 48 99 98 69 78 28 87 69 87 84 87 81 79 81 78 76 75 76 73 62 72 70 63 55 50 52 53 48 53 51 58 48 68 60 35
59 40 61 59 59 64 67 52 53 87 64 83 100 64 63 59 75 60 65 84 86 85 79 75 73 74 73 77 63 61 53 63 65 64 52 63 59 55 67 66 54 56 61
52 48 40 65 62 64 65 71 76 80 84 97 46 79 85 38 43 84 95 53 89 88 84 66 77 75 71 75 77 76 72 64 75 68 67 68 58 56 56 68 52 61 61
41 43 65 26 65 67 66 70 73 77 45 88 44 60 80 47 94 99 46 78 84 79 61 84 80 76 71 74 75 74 70 77 79 78 71 73 75 72 74 64 75 71 63
57 57 64 62 24 22 48 40 45 53 85 88 92 100 96 50 89 66 87 87 88 90 83 82 84 82 79 80 79 76 74 72 77 73 72 73 69 75 75 76 74 69 71
50 61 56 26 27 28 26 18 43 47 48 91 91 93 95 104 99 89 94 84 82 83 85 82 86 85 82 81 81 78 76 73 74 76 74 74 75 72 69 77 61 67 70
60 51 48 31 26 20 24 15 45 37 45 89 92 94 95 92 100 83 91 84 93 86 88 76 80 86 80 83 78 77 77 76 77 78 79 59 78 69 61 77 67 79 76
56 49 40 35 23 26 18 14 24 10 29 60 91 94 81 93 101 106 102 101 90 87 88 86 77 77 70 80 76 79 78 75 78 54 53 68 53 74 79 80 41 74 64
48 49 39 33 33 24 20 27 10 19 15 26 85 85 88 100 92 111 109 104 89 89 86 80 87 73 69 84 56 79 79 80 81 81 76 81 82 67 58 62 62 62 76
Wind_Direction
241 239 242 241 240 244 245 248 231 227 247 244 243 239 241 239 225 223 232 250 245 255 240 246 247 238 233 229 260 262 264 254 251 266 263 267 273 277 275 263 273 275 268
244 242 245 241 242 239 243 242 246 241 231 242 239 241 241 243 235 224 227 220 226 253 235 256 224 253 242 235 258 242 263 268 253 259 260 262 265 268 261 265 266 278 268
226 252 250 246 245 243 241 236 245 242 241 241 239 240 239 240 237 233 224 227 225 224 224 227 229 230 232 238 241 242 262 264 249 255 259 261 267 272 271 266 267 260 277
243 248 248 247 245 241 240 238 234 243 241 239 240 238 238 238 239 242 232 242 231 228 228 229 229 232 234 236 241 245 244 260 253 256 255 263 259 260 267 259 256 272 273
236 239 246 244 238 238 239 237 233 233 238 235 238 238 237 237 237 246 244 224 242 235 230 228 234 235 238 240 242 243 243 257 261 255 260 259 258 255 255 257 261 275 277
249 237 239 241 237 240 240 239 232 230 228 244 238 240 237 237 235 238 249 230 226 253 242 237 235 234 235 240 241 239 248 256 265 248 250 252 252 254 256 267 267 269 272
250 248 242 240 241 243 233 242 237 234 231 231 239 235 237 236 237 236 238 237 238 234 238 248 238 241 241 241 239 242 248 250 251 252 252 259 257 258 263 265 268 272 274
240 247 245 241 238 240 235 237 238 248 231 240 232 231 241 238 236 237 238 239 237 244 240 240 239 239 240 244 246 246 248 250 251 254 255 256 259 262 263 266 270 273 279
245 238 244 248 241 236 237 237 241 231 245 235 239 230 233 239 239 236 243 240 238 240 243 250 244 246 244 247 245 246 256 256 248 251 254 257 256 260 267 267 271 267 277
237 245 244 241 247 240 235 236 235 239 238 240 241 238 229 230 236 238 236 241 238 239 241 243 245 246 247 246 247 251 251 253 255 253 257 256 259 262 267 267 270 268 275
248 253 245 245 245 240 240 235 233 235 240 237 231 234 244 237 229 236 242 240 240 241 241 241 244 249 251 248 249 247 249 252 254 256 259 257 258 258 262 265 269 273 272
250 256 241 247 248 245 244 239 233 232 231 237 237 237 235 239 232 229 234 241 240 240 244 242 246 246 248 250 251 253 253 255 256 256 255 259 258 259 261 265 268 271 275
250 232 245 237 237 247 253 242 241 234 233 234 233 236 237 233 238 241 231 233 242 245 248 243 247 249 249 249 250 254 255 254 254 257 254 259 256 269 266 267 269 271 274
246 248 239 258 244 249 252 245 244 240 233 235 232 233 235 237 238 229 240 236 232 238 241 245 250 252 253 254 255 256 255 257 258 256 256 257 261 262 264 269 268 272 275
244 253 259 253 242 242 241 245 236 242 238 230 233 233 233 234 235 237 230 240 233 234 235 247 251 246 253 254 256 256 257 257 258 261 259 261 263 262 263 268 270 275 273
266 253 260 260 250 245 236 250 236 243 240 260 237 249 233 235 234 234 238 232 233 239 242 235 246 252 255 256 256 257 260 260 261 263 258 256 256 265 263 265 269 266 278
270 271 268 264 238 256 251 238 249 235 254 230 237 230 225 233 237 235 235 237 233 235 237 240 241 239 251 257 256 259 260 263 262 264 263 263 270 273 268 279 260 281 283
275 272 268 264 259 259 251 242 251 235 232 238 243 219 230 232 234 240 234 235 239 240 239 236 238 241 241 250 256 257 262 264 263 265 267 268 273 275 276 258 278 283 275
277 263 271 266 255 260 255 249 246 239 240 233 228 236 232 234 235 245 238 231 235 238 239 242 245 240 241 248 250 253 257 267 268 269 260 271 273 268 276 279 285 278 283
275 264 260 279 261 266 257 245 251 243 236 229 245 236 229 257 254 237 232 247 234 237 239 244 242 243 243 245 248 250 252 258 263 267 272 273 264 262 264 276 282 273 283
255 268 288 263 279 275 261 247 244 237 239 229 230 244 229 251 228 222 239 234 229 235 249 238 241 242 240 244 247 251 251 254 260 262 261 264 269 270 273 269 281 287 278
288 289 298 291 277 279 261 256 248 240 226 222 219 220 214 246 226 240 232 229 228 230 233 238 238 241 244 248 249 249 252 253 258 259 260 263 268 272 273 277 281 281 286
285 297 303 281 278 264 267 246 255 244 238 218 213 220 218 217 221 222 232 222 234 229 230 234 238 238 242 245 245 252 251 252 262 264 262 263 267 274 274 277 267 279 286
295 295 309 305 304 282 301 273 252 234 233 214 209 208 218 215 216 232 221 232 232 230 227 238 239 236 241 242 242 244 253 252 255 258 261 265 268 267 272 276 271 282 283
299 306 304 323 324 321 335 316 319 305 230 219 202 201 216 213 211 222 226 225 232 226 228 228 239 240 248 244 240 247 249 250 257 260 263 260 273 267 272 273 268 280 275
296 312 307 311 322 302 321 327 360 273 267 233 193 193 212 205 222 215 223 229 226 222 227 234 230 240 247 237 252 248 250 255 258 259 262 264 265 267 267 272 266 273 276